Regional Weather Roundup
Issued by NWS Sterling, VA

Home | Current Version | Previous Version | Text Only | Print | Product List | Glossary On
Versions: 1 2 3 4 5 6 7 8 9 10 11 12 13 14 15 16 17 18 19 20 21 22 23 24 25 26 27 28
000
ASUS41 KLWX 240110
RWRLWX

REGIONAL WEATHER ROUNDUP
NATIONAL WEATHER SERVICE BALTIMORE MD/WASHINGTON DC
900 PM EDT THU MAR 23 2017

Note: "FAIR" indicates few or no clouds below 12,000 feet
with no significant weather and/or obstructions to visibility.
 TC=TEMPERATURE CELSIUS

 * =Non NWS site. Station does not report precipitation (e.g. rain,
    snow, etc.), thunder, or fog.

DCZ001-MDZ009-015-VAZ040>042-051-053>054-240200-
WASHINGTON METRO

CITY           SKY/WX    TMP DP  RH WIND       PRES   REMARKS
WASHINGTON NAT CLEAR     43  14  31 SE7       30.53S
DULLES         CLEAR     40  10  29 SE7       30.50R
ANDREWS AFB    CLEAR     37  18  44 SE7       30.50F
FT BELVOIR     CLEAR     41  16  35 S5        30.52R
QUANTICO       CLEAR     42  27  55 S8        30.54S
COLLEGE PARK*  CLEAR     37  19  48 CALM      30.52S
LEESBURG*      CLEAR     45  18  33 S7        30.50R
MANASSAS*      CLEAR     39  16  39 S7        30.51R
GAITHERSBURG*  CLEAR     39   9  28 SE6       30.54R

$$

MDZ006>007-011-014-240200-
BALTIMORE METRO

CITY           SKY/WX    TMP DP  RH WIND       PRES   REMARKS
BWI AIRPORT    CLEAR     37  19  48 SE6       30.52S
MD SCIENCE CTR   N/A     40  16  37 MISG      30.52S
MARTIN STATE   CLEAR     39  25  56 S6        30.55S
ANNAPOLIS      CLEAR     41  24  51 S7        30.53F
FORT MEADE*    CLEAR     34  19  55 SE5       30.54S

$$

MDZ012-015-019>023-240200-
MARYLAND EASTERN SHORE

CITY           SKY/WX    TMP DP  RH WIND       PRES   REMARKS
OCEAN CITY     CLEAR     36  25  64 VRB6      30.59R
SALISBURY      CLEAR     32  24  72 SE3       30.57R
BAY BRIDGE AP* CLEAR     39  21  48 SE6       30.54S
CAMBRIDGE*     CLEAR     34  19  55 SE5       30.56R

$$

MDZ017>025-240200-
SOUTHERN MARYLAND

CITY           SKY/WX    TMP DP  RH WIND       PRES   REMARKS
PATUXENT RIVER CLEAR     36  17  46 S7        30.55S
ST INIGOES     CLEAR     38  17  42 SE8       30.55S
LEONARDTOWN*   CLEAR     36  16  44 SE5       30.56S

$$

MDZ003>005-240200-
NORTH CENTRAL MARYLAND

CITY           SKY/WX    TMP DP  RH WIND       PRES   REMARKS
FREDERICK*     NOT AVBL
HAGERSTOWN APT CLEAR     41   9  26 SE5       30.46R
WESTMINSTER*   CLEAR     39  10  30 CALM      30.48S

$$

MDZ501>502-240200-
WESTERN MARYLAND

CITY           SKY/WX    TMP DP  RH WIND       PRES   REMARKS
OAKLAND*       CLEAR     34  10  37 SE12      30.33S WCI  25
CUMBERLAND*    CLEAR     45  10  24 SE3       30.45S

$$

VAZ025>031-240200-
SHENANDOAH VALLEY

CITY           SKY/WX    TMP DP  RH WIND       PRES   REMARKS
WINCHESTER*    CLEAR     37  14  38 SE5       30.45R
FRONT ROYAL*     N/A    N/A N/A N/A MISG        N/A
LURAY*         CLEAR     41  19  42 SW5       30.44S
NEW MARKET*    CLEAR     40  14  34 SW6       30.42F
STAUNTON*      CLEAR     41  16  35 S6        30.47R
WAYNESBORO*    CLEAR     40  16  38 S3        30.45R

$$

WVZ021-048>050-054>055-240200-
EASTERN WEST VIRGINIA PANHANDLE

CITY           SKY/WX    TMP DP  RH WIND       PRES   REMARKS
MARTINSBURG    CLEAR     40  11  30 SE3       30.45S
PETERSBURG*    CLEAR     38  27  65 W3        30.41R

$$

VAZ036>039-050-240200-
CENTRAL FOOTHILLS

CITY           SKY/WX    TMP DP  RH WIND       PRES   REMARKS
CHARLOTTESVILL CLEAR     44  15  31 S6        30.48S
CULPEPER*      CLEAR     37  19  48 CALM      30.51R
ORANGE*        CLEAR     39  18  41 CALM      30.50S
GORDONSVILLE*  CLEAR     38  21  50 CALM      30.49R
WARRENTON*     CLEAR     42   7  24 SE5       30.49S

$$

VAZ055>057-240200-
NORTH AND CENTRAL PIEDMONT

CITY           SKY/WX    TMP DP  RH WIND       PRES   REMARKS
FREDERICKSBRG* CLEAR     42  22  46 E6        30.52R
STAFFORD*      CLEAR     38  18  43 SE3       30.56R

$$

NCZ024-NYZ072-PAZ021-071-VAZ022-071-240200-
OTHER REGIONAL OBSERVATIONS

CITY           SKY/WX    TMP DP  RH WIND       PRES   REMARKS
NEW YORK CITY  CLEAR     40  -2  17 NW3       30.55R
PHILADELPHIA   CLEAR     40  13  33 S6        30.55R
PITTSBURGH     PTCLDY    45   5  19 E3        30.34S
ROANOKE        CLEAR     46  17  31 SE8       30.48R
RICHMOND       CLEAR     41  20  43 SE10      30.54R
RALEIGH        PTCLDY    47  20  34 SE6       30.52R

$$

ANZ530>537-240200-
MARINE OBSERVATIONS

STATION/POSITION TIME  TEMP    WIND        PRES
                       AIR SEA DIR/SP/G
                 (UTC) (F)     (DEG/KT/KT) (MB)
THOMAS PT LIGHT  0100   42 44  180/ 16/ 18   N/A
BALT KEY BRIDGE  0030   40     180/ 11/ 13 1033.7S
COVE POINT       0030   40     190/ 13/ 14 1035.1F
LEWISETTA        0030   38 48  170/  6/  8 1034.6F
SOLOMONS ISLAND  0030   39 46  170/  9/ 12   N/A
PINEY POINT      0030          170/ 12/ 13   N/A

$$





USA.gov is the U.S. government's official web portal to all federal, state and local government web resources and services.